Location: *
(49.9853°N, 3.5569°E)
Time: 01:05:02
(UTC+00:00)

Cosmos 1535 Rocket - Pass Details

Date: 22 September 2019
Orbit: 948 x 1004 km, 83.0° (Epoch: 22 October)

Event Time Altitude Azimuth Distance (km) Brightness Sun altitude
Rises 20:41:59 0° 350° (N) 3,741 8.2 -27.3°
Reaches altitude 10° 20:44:32 10° 352° (N) 2,784 7.4 -27.7°
Maximum altitude 20:50:58 83° 80° (E) 1,008 4.4 -28.5°
Enters shadow 20:51:17 80° 130° (SE) 1,015 4.3 -28.5°
